{"data":{"norad_id":65423,"intl_designator":"2025-192V","name":"STARLINK-34837","alt_names":[],"object_type":"PAYLOAD","status":"ACTIVE","operator":null,"country":"US","launch_date":"2025-08-31","launch_site_code":"AFETR","launch_vehicle":null,"mission":null,"orbit_class":"UNKNOWN","rcs_meters":null,"size_class":null,"mass_kg":null,"dimensions":null,"purposes":["comms"],"wikipedia_slug":null,"has_3d_model":false,"image_url":null,"decayed_at":null,"tle_current":{"epoch":"2026-05-24T23:00:16.193664Z","epoch_age_seconds":85575,"freshness":"FRESH","line1":"1 65423U 25192V   26144.95852076  .00014647  00000+0  48256-3 0  9997","line2":"2 65423  53.1564 237.9235 0000737  74.9645 285.1438 15.31717891 41064","mean_motion":15.31717891,"eccentricity":7.37e-5,"inclination_deg":53.1564,"raan_deg":237.9235,"arg_perigee_deg":74.9645,"mean_anomaly_deg":285.1438,"bstar":0.00048256,"rev_number":4106,"period_min":94.012089854215,"perigee_km":470.18190530073,"apogee_km":471.19142190874,"semimajor_km":6848.8236636047,"source":"CELESTRAK","updated_at":"2026-05-25T13:38:20.803352Z"}}}